Probability
41 41 40 41 46 50 47 39 31 27 24 20 15 12 11 10 11 14 18 18 15 12 11 9 10 10 6 3 5 7 6 4 3 3 1 1 2 1 2 4 3 1 1
48 48 45 45 51 56 51 42 36 31 27 23 18 14 12 11 13 19 24 24 22 19 16 14 12 10 7 6 7 8 7 4 4 4 2 1 1 1 1 3 3 2 2
55 54 52 51 56 59 55 47 43 39 32 26 21 18 18 17 19 26 30 29 27 25 22 19 16 13 9 7 8 10 9 6 5 4 3 1 1 0 0 1 1 2 4
55 57 55 55 57 58 56 53 52 48 39 31 25 22 22 22 25 30 32 30 27 25 25 24 22 18 10 6 7 10 11 9 6 3 2 1 1 1 0 0 0 1 3
51 54 57 57 56 56 57 57 58 57 49 39 31 26 23 23 26 30 31 30 28 26 27 29 28 22 13 8 6 9 12 10 6 3 2 2 2 1 0 0 0 1 2
44 51 57 62 61 58 58 58 59 60 54 45 37 31 26 24 26 29 32 33 32 30 29 29 28 24 19 13 9 9 10 10 7 4 3 3 3 2 0 0 0 1 2
38 46 58 65 67 63 60 59 60 60 56 51 44 38 34 31 29 31 34 36 34 32 28 27 27 26 23 18 14 13 11 10 8 6 5 4 3 2 1 0 0 0 1
32 42 54 61 62 60 58 60 62 62 60 56 52 47 43 38 35 34 36 37 35 31 29 29 29 28 24 20 17 16 15 13 10 7 6 5 4 3 2 1 1 1 0
28 37 47 51 51 53 56 59 63 65 64 61 58 54 49 42 38 36 34 35 34 31 29 30 30 29 26 22 19 19 18 15 11 9 8 6 4 3 3 3 4 4 2
25 32 43 49 51 55 58 60 63 66 65 62 58 53 49 44 39 36 35 34 33 31 28 26 27 28 26 24 22 21 19 16 13 11 9 6 4 3 3 4 7 7 5
25 32 42 51 57 61 63 62 62 63 63 60 56 50 47 44 41 38 37 35 34 31 26 24 25 25 23 22 22 21 20 18 15 13 10 7 5 4 4 4 6 8 8
29 33 42 51 58 63 65 63 60 60 60 58 54 50 48 45 43 41 38 36 33 29 24 23 23 22 20 20 20 19 19 18 16 14 12 10 8 8 7 6 8 9 9
31 36 43 51 59 63 64 62 58 57 57 55 51 50 49 46 44 42 39 33 30 27 23 22 21 19 18 18 18 18 17 15 14 14 14 13 12 11 11 11 11 11 11
36 41 48 56 62 64 63 61 59 56 55 52 50 49 48 44 42 40 35 30 27 26 24 22 20 18 15 15 17 17 15 13 11 12 13 13 12 12 12 13 14 13 13
42 48 55 58 60 60 60 59 58 57 56 54 51 48 45 40 37 34 30 28 27 26 24 22 21 18 15 14 15 16 13 11 11 10 11 11 10 9 9 11 12 13 13
44 51 57 59 58 58 58 59 58 59 59 55 49 45 40 36 32 30 29 28 28 26 23 21 20 19 15 13 12 13 12 11 10 10 10 9 8 6 6 6 7 9 9
45 51 58 59 58 59 61 60 60 61 60 53 45 39 36 33 30 29 29 28 27 23 20 18 18 17 14 11 9 10 11 10 10 10 9 9 8 6 5 4 3 3 4
51 54 59 60 60 62 63 62 61 61 56 48 40 35 34 33 30 28 28 26 23 19 17 16 15 14 12 10 8 8 9 10 10 10 9 9 8 6 4 3 2 2 2
57 58 59 61 65 67 65 62 60 58 52 43 37 33 32 31 29 26 25 23 20 17 15 13 12 12 10 8 6 7 9 10 10 9 9 9 7 5 3 2 2 2 1
62 61 62 66 70 69 67 63 58 53 47 40 35 32 31 29 26 22 20 19 17 14 13 11 10 10 9 6 4 5 8 10 10 9 8 7 5 3 1 2 2 1 0
65 65 67 70 70 68 65 61 55 50 45 40 35 32 30 26 21 18 16 16 15 13 11 10 10 10 9 6 3 3 6 9 9 8 7 5 4 1 1 1 1 1 0
68 68 69 70 68 65 63 60 55 50 47 41 36 32 28 23 18 14 13 13 12 10 9 9 9 9 8 6 3 2 3 6 7 7 5 4 2 1 0 1 2 1 1
66 66 66 67 67 66 64 61 56 51 47 42 36 31 27 23 18 13 11 11 9 8 7 8 9 9 7 5 3 1 1 2 4 4 3 1 1 0 0 1 1 1 0
61 61 62 63 66 67 66 61 55 49 46 42 35 30 26 22 17 12 10 9 7 7 7 7 8 7 6 4 3 2 1 2 2 2 1 0 0 0 0 0 0 0 0
57 58 58 60 63 64 64 60 53 49 46 40 33 27 22 17 12 8 6 6 6 6 6 7 7 6 5 4 3 3 3 3 2 1 0 0 0 0 0 0 0 0 0
57 58 58 58 60 61 62 60 54 49 46 39 31 23 18 13 9 5 4 4 4 4 5 6 7 6 5 4 3 3 3 3 2 1 0 0 0 0 0 0 0 0 0
Wind_Speed
13 12 12 12 11 9 8 7 6 6 4 3 4 3 3 3 2 3 4 4 4 3 2 1 2 2 1 1 2 1 2 3 2 1 1 2 2 3 2 2 1 1 2
14 13 12 12 11 10 9 8 7 7 6 4 3 3 3 3 3 2 3 4 4 4 4 3 2 2 2 1 2 2 2 2 1 1 1 1 1 1 2 2 2 1 1
15 14 13 12 12 11 11 9 7 7 6 5 3 3 2 2 2 2 3 4 4 4 3 3 3 2 2 2 2 2 3 3 2 1 1 1 1 1 1 0 1 1 1
15 15 14 12 12 12 11 8 8 7 6 5 4 4 4 3 3 2 2 3 3 3 3 3 3 3 2 1 3 3 2 2 2 2 2 2 1 1 1 1 0 1 1
15 15 15 13 12 12 11 9 8 7 6 5 5 4 3 3 2 2 3 3 3 3 3 3 3 3 2 2 2 1 2 2 2 2 2 2 2 2 1 1 0 1 1
13 14 14 13 12 12 11 10 9 7 7 6 5 4 4 2 2 2 2 2 2 2 3 3 3 3 2 2 2 2 2 2 3 2 2 2 1 1 2 2 1 1 0
11 11 12 13 12 12 11 10 10 8 7 6 5 4 3 3 2 2 2 2 2 2 3 3 3 3 3 2 2 2 2 2 2 2 2 2 2 1 1 1 1 1 0
11 11 13 13 12 12 11 10 10 8 7 7 5 4 3 3 2 2 2 1 1 1 2 3 2 2 2 2 2 1 1 1 1 2 1 1 1 1 0 1 1 1 0
10 10 11 13 12 12 11 10 10 8 8 6 5 4 3 2 2 1 1 1 1 1 1 2 2 2 2 1 1 1 0 0 0 1 0 1 1 1 0 0 1 2 1
9 9 9 10 10 9 8 8 9 8 7 6 5 5 4 3 1 1 1 0 1 1 1 1 1 1 1 1 1 1 0 1 1 0 1 1 1 1 1 0 0 1 2
7 8 8 9 10 9 9 8 7 8 7 6 5 3 3 3 2 1 1 1 1 1 1 1 0 1 1 1 1 1 1 1 1 0 1 1 1 1 1 1 1 1 2
6 7 8 8 8 9 8 8 7 7 6 6 5 3 3 3 2 2 1 2 1 1 1 1 1 1 1 1 1 1 1 1 1 1 1 1 1 1 1 1 1 1 2
7 8 8 7 7 8 7 7 6 6 6 6 5 4 3 3 2 2 2 1 2 1 2 2 1 1 1 1 1 1 1 1 1 1 1 2 2 1 1 1 1 1 2
7 8 8 8 7 7 7 7 6 6 6 6 5 5 3 3 2 2 2 2 2 2 2 2 2 2 2 2 2 2 1 2 2 2 2 3 2 1 0 1 1 2 2
8 9 9 8 8 7 6 6 6 6 6 6 5 5 4 3 3 3 3 3 3 3 3 3 3 3 2 3 3 2 2 3 3 3 3 4 5 6 3 3 2 2 2
8 9 9 9 8 8 7 7 6 6 6 6 5 5 5 4 4 4 4 4 4 4 4 4 4 4 4 7 6 4 3 3 3 3 2 3 4 5 6 7 6 5 3
8 8 9 8 8 8 7 7 7 6 6 6 5 5 5 5 4 4 5 5 5 5 5 5 5 6 7 8 7 6 3 3 3 3 2 3 5 5 4 6 8 7 7
8 8 8 9 8 8 8 8 7 7 6 6 5 5 5 5 5 5 5 4 4 4 4 5 5 5 6 8 8 6 5 5 5 5 5 5 5 5 5 5 6 6 5
7 7 7 9 9 9 8 8 7 7 7 6 5 5 5 5 5 5 4 4 4 5 5 4 5 5 5 8 7 5 4 5 5 6 6 5 5 7 6 4 5 5 4
7 7 7 9 9 8 8 8 8 7 6 6 6 6 5 5 5 5 4 4 4 5 5 5 5 5 5 7 8 6 3 4 4 5 6 8 7 7 6 4 4 4 3
8 7 7 7 7 8 8 7 7 7 7 7 6 6 6 5 6 5 4 4 4 5 5 5 5 5 5 6 9 8 3 2 3 4 4 4 7 7 6 4 4 3 2
8 8 7 7 7 7 7 7 7 7 8 8 7 7 6 5 5 4 3 4 5 5 5 5 4 4 4 5 6 8 7 4 4 4 4 4 5 6 5 4 4 3 2
7 7 7 7 7 7 7 8 7 8 8 8 7 7 6 5 5 4 4 3 3 4 4 4 4 4 4 4 6 7 8 7 5 4 6 5 4 3 2 3 2 2 1
6 6 7 7 7 7 7 7 8 9 9 8 7 6 6 6 5 3 3 3 2 2 3 4 4 4 4 3 2 3 4 6 5 4 4 3 1 0 1 1 1 0 1
5 5 5 6 7 7 7 8 9 9 9 8 7 7 6 6 5 4 4 3 4 2 2 3 3 4 4 2 2 2 2 2 2 2 2 2 2 2 1 1 1 0 1
5 5 5 6 7 8 8 8 8 8 8 7 6 6 6 5 5 6 6 9 7 8 9 7 5 5 5 6 5 4 4 3 3 1 1 1 1 1 1 1 1 1 1
Wind_Direction
162 159 160 157 154 151 153 163 166 158 164 174 181 195 191 204 204 193 176 182 195 194 208 224 178 234 249 261 273 255 257 251 252 277 288 271 225 203 195 204 201 188 191
163 162 163 161 159 158 160 166 173 169 180 185 189 201 201 218 205 190 168 193 196 199 209 201 217 212 218 231 266 272 273 274 250 240 266 281 291 292 220 179 169 173 170
167 166 167 167 167 167 169 176 178 173 187 183 193 211 193 237 212 180 185 203 202 207 227 185 216 228 229 215 236 254 262 271 282 244 242 247 251 282 304 94 151 137 113
168 168 171 173 173 171 172 171 170 173 181 184 200 208 204 218 216 189 186 195 199 211 207 202 210 222 242 213 235 221 245 256 264 255 231 228 219 224 296 324 358 113 107
169 171 174 174 175 175 173 170 166 172 177 188 201 211 221 221 211 185 180 186 196 210 215 201 198 211 235 236 252 253 247 249 256 260 251 239 226 220 219 247 263 32 64
171 170 172 169 175 175 174 172 169 174 176 187 198 206 225 230 243 194 175 194 201 204 213 207 198 206 228 236 245 251 254 251 258 264 272 262 230 219 220 225 215 203 187
167 167 168 168 173 175 174 172 168 175 178 185 197 200 216 224 243 230 211 216 206 204 206 213 205 211 222 227 232 240 260 260 262 265 273 286 286 277 243 198 226 225 137
165 168 171 170 177 177 173 170 166 170 176 184 193 197 200 217 227 225 234 219 232 214 186 191 198 201 215 225 201 228 236 237 249 267 275 288 296 304 267 210 193 198 155
158 164 170 167 176 175 171 172 163 164 172 180 182 187 191 204 217 190 217 260 277 253 125 157 176 184 191 206 159 155 207 138 198 272 313 277 290 343 341 273 191 186 186
155 153 154 156 163 163 158 159 155 159 164 171 180 178 177 185 193 151 159 31 29 17 64 83 121 133 158 155 153 142 156 134 113 98 23 348 352 3 8 60 83 117 149
141 138 139 143 144 142 144 143 146 150 157 165 166 168 163 161 163 165 146 134 108 84 68 87 107 136 145 152 151 153 150 144 107 51 56 34 31 17 11 44 81 103 124
122 121 122 130 135 137 142 145 148 150 151 148 145 147 137 142 150 144 124 115 113 98 80 68 79 102 114 134 144 168 151 129 127 93 50 34 59 52 37 40 87 111 120
121 116 115 121 125 131 134 135 137 139 140 140 139 133 127 121 127 135 128 114 107 93 73 62 59 46 45 88 108 119 118 109 88 75 68 60 59 57 66 72 77 106 116
129 121 118 120 119 122 127 132 135 136 137 136 137 130 125 119 125 123 115 106 100 91 78 65 59 57 42 51 67 72 82 85 74 66 67 62 65 52 53 96 85 99 110
131 127 127 127 126 129 130 130 130 130 131 131 130 131 128 117 109 106 106 104 96 90 73 62 53 47 51 46 42 68 80 74 71 69 75 78 79 72 65 65 61 87 96
146 137 135 133 138 143 141 135 132 133 133 134 134 133 131 124 114 110 106 98 91 81 71 66 61 54 46 34 42 55 77 81 80 76 76 84 73 78 80 78 73 73 88
144 142 142 142 143 144 139 138 137 134 134 133 133 133 133 128 123 118 107 98 91 88 79 73 69 63 44 34 38 48 67 73 68 67 58 56 61 69 79 85 78 65 66
150 147 147 144 145 144 141 140 141 140 139 136 132 128 125 120 115 111 105 103 101 95 86 77 73 69 48 35 38 49 76 68 59 54 58 60 52 49 61 80 77 69 58
144 145 147 144 143 143 143 142 143 143 141 138 133 126 122 122 121 117 113 109 107 101 96 89 80 72 51 36 36 42 91 82 69 59 54 59 62 46 62 89 98 93 78
140 142 143 138 139 142 144 145 146 142 140 135 130 125 122 124 121 117 114 113 112 110 106 93 83 76 61 42 37 30 85 95 90 79 65 57 57 50 56 82 87 87 85
137 137 135 134 139 142 146 149 146 144 138 130 123 122 121 120 118 116 116 124 125 117 110 106 93 81 68 58 48 43 51 80 97 93 80 60 54 50 43 61 74 81 78
139 138 137 137 140 145 150 149 146 138 132 129 127 125 125 127 123 123 125 136 135 129 123 115 106 95 81 62 59 55 53 56 83 88 89 85 72 59 45 56 61 60 62
139 141 142 143 148 151 154 151 139 135 136 134 131 130 128 118 121 126 127 130 140 137 136 137 130 119 110 92 76 67 64 64 76 81 101 110 98 71 68 77 57 53 43
142 142 147 153 150 150 151 144 139 140 140 139 138 135 131 129 124 122 123 118 120 138 143 141 132 125 121 113 111 114 102 96 97 102 114 131 136 66 19 70 90 90 52
142 143 146 150 148 147 144 142 143 145 145 144 144 141 136 129 113 93 61 75 60 64 111 111 120 128 125 109 111 121 112 111 102 125 173 174 160 145 140 132 115 93 85
142 144 148 151 145 144 141 141 145 149 150 151 154 153 148 144 142 130 100 57 73 77 80 85 97 98 109 124 104 94 90 91 97 136 175 155 154 143 136 138 128 96 59